Pittsburgh, PA

2:00 PM EDT on March 25, 2017 (GMT -0400)
Pittsburgh International

Weather History for KPIT - May, 2014

Change the Weather History Date:

Monday, May 12, 2014

  Actual Average Record
Temperature  
Mean Temperature 68 °F 59 °F  
Max Temperature 77 °F 70 °F 94 °F (1881)
Min Temperature 59 °F 48 °F 33 °F (1963)
Degree Days  
Heating Degree Days 0 7  
Month to date heating degree days 77 100  
Since 1 July heating degree days 5935 5576  
Cooling Degree Days 3 1  
Month to date cooling degree days 14 11  
Year to date cooling degree days 24 21  
Growing Degree Days 18 (Base 50)    
Moisture  
Dew Point 63 °F    
Average Humidity 81    
Maximum Humidity 97    
Minimum Humidity 64    
Precipitation  
Precipitation 0.48 in 0.12 in 2.05 in (1980)
Month to date precipitation 1.03 1.37  
Year to date precipitation 11.80 12.52  
Snow  
Snow 0.00 in 0.00 in T in (1909)
Month to date snowfall 0.0 0.0  
Since 1 July snowfall 63.4 41.9  
Snow Depth 0.00 in    
Sea Level Pressure  
Sea Level Pressure 30.11 in    
Wind  
Wind Speed 5 mph (SSW)    
Max Wind Speed 31 mph    
Max Gust Speed 39 mph    
Visibility 9 miles    
Events Rain , Thunderstorm    
T = Trace of Precipitation, MM = Missing Value Source: NWS Daily Summary

Daily Weather History Graph

Daily Weather History Graph

Search for Another Location

Airport or City:

Trip Planner

Search our weather history database for the weather conditions in past years. The results will help you decide how hot, cold, wet, or windy it might be!

Date:

Astronomy

May. 12, 2014 Rise Set
Actual Time 6:07 AM EDT 8:27 PM EDT
Civil Twilight 5:36 AM EDT 8:58 PM EDT
Nautical Twilight 4:58 AM EDT 9:36 PM EDT
Astronomical Twilight 4:17 AM EDT 10:18 PM EDT
Moon 6:23 PM EDT (5/12) 4:46 AM EDT (5/12)
Length of Visible Light 15h 21m
Length of Day
14h 20m
Waxing Gibbous, 95% of the Moon is Illuminated
May 12
Waxing Gibbous
May 14
Full
May 21
Last Quarter
May 28
New
Jun 5
First Quarter

Hourly Weather History & Observations

Time (EDT) Temp. Dew Point Humidity Pressure Visibility Wind Dir Wind Speed Gust Speed Precip Events Conditions
12:51 AM 63.0 °F 55.0 °F 75% 30.10 in 10.0 mi South 3.5 mph - N/A   Overcast
1:51 AM 63.0 °F 57.0 °F 81% 30.12 in 5.0 mi WSW 5.8 mph - 0.03 in Rain Light Rain
2:51 AM 60.1 °F 59.0 °F 96% 30.09 in 8.0 mi SSE 3.5 mph - 0.01 in   Overcast
3:51 AM 60.1 °F 57.9 °F 93% 30.06 in 8.0 mi Calm Calm - N/A   Mostly Cloudy
4:51 AM 60.1 °F 59.0 °F 96% 30.08 in 8.0 mi South 3.5 mph - N/A   Overcast
5:51 AM 62.1 °F 57.9 °F 86% 30.09 in 10.0 mi SSW 3.5 mph - N/A   Overcast
6:51 AM 62.1 °F 59.0 °F 90% 30.11 in 10.0 mi South 5.8 mph - 0.00 in Rain Light Rain
7:51 AM 64.0 °F 60.1 °F 87% 30.12 in 10.0 mi SW 3.5 mph - 0.00 in Rain Light Rain
8:51 AM 64.0 °F 61.0 °F 90% 30.11 in 7.0 mi SSW 9.2 mph - 0.02 in Rain Light Rain
9:37 AM 64.9 °F 63.0 °F 93% 30.10 in 10.0 mi SSE 8.1 mph - 0.02 in   Overcast
9:51 AM 64.9 °F 63.0 °F 93% 30.11 in 10.0 mi South 4.6 mph - 0.02 in   Overcast
10:21 AM 66.0 °F 62.1 °F 87% 30.11 in 10.0 mi SW 9.2 mph - N/A   Overcast
10:45 AM 68.0 °F 62.6 °F 83% 30.10 in 10.0 mi SW 9.2 mph - N/A   Mostly Cloudy
10:51 AM 69.1 °F 62.1 °F 78% 30.11 in 10.0 mi SW 8.1 mph - N/A   Mostly Cloudy
11:37 AM 72.0 °F 63.0 °F 73% 30.11 in 10.0 mi WSW 13.8 mph - N/A   Mostly Cloudy
11:51 AM 73.0 °F 63.0 °F 71% 30.11 in 10.0 mi SW 10.4 mph - N/A   Mostly Cloudy
12:22 PM 72.0 °F 61.0 °F 68% 30.11 in 10.0 mi SW 13.8 mph 20.7 mph N/A   Mostly Cloudy
12:51 PM 73.0 °F 62.1 °F 68% 30.11 in 10.0 mi WSW 11.5 mph - N/A   Mostly Cloudy
1:51 PM 75.9 °F 62.1 °F 62% 30.11 in 10.0 mi SW 11.5 mph 19.6 mph N/A   Mostly Cloudy
2:51 PM 75.9 °F 64.0 °F 67% 30.12 in 10.0 mi West 6.9 mph - 0.00 in Rain Light Rain
3:24 PM 75.9 °F 64.9 °F 69% 30.11 in 7.0 mi West 10.4 mph - 0.01 in Rain , Thunderstorm Light Thunderstorms and Rain
3:51 PM 71.1 °F 66.0 °F 84% 30.12 in 8.0 mi West 4.6 mph - 0.04 in Rain , Thunderstorm Light Thunderstorms and Rain
4:03 PM 71.1 °F 66.0 °F 84% 30.14 in 2.0 mi NW 15.0 mph - 0.00 in Rain , Thunderstorm Thunderstorms and Rain
4:24 PM 69.1 °F 66.9 °F 93% 30.11 in 6.0 mi West 3.5 mph - 0.14 in Rain Light Rain
4:26 PM 69.1 °F 66.9 °F 93% 30.11 in 7.0 mi WSW 4.6 mph - 0.14 in   Overcast
4:51 PM 71.1 °F 66.9 °F 87% 30.12 in 10.0 mi North 3.5 mph - 0.15 in   Overcast
5:51 PM 71.1 °F 68.0 °F 90% 30.11 in 10.0 mi East 3.5 mph - N/A   Mostly Cloudy
6:51 PM 71.1 °F 66.9 °F 87% 30.10 in 10.0 mi SSE 5.8 mph - N/A   Mostly Cloudy
7:51 PM 71.1 °F 66.9 °F 87% 30.09 in 10.0 mi South 3.5 mph - N/A   Mostly Cloudy
8:51 PM 69.1 °F 66.0 °F 90% 30.09 in 10.0 mi SE 4.6 mph - N/A   Overcast
9:51 PM 68.0 °F 66.0 °F 93% 30.10 in 10.0 mi Calm Calm - N/A   Mostly Cloudy
10:51 PM 68.0 °F 66.0 °F 93% 30.10 in 10.0 mi SSE 4.6 mph - N/A   Overcast
11:51 PM 68.0 °F 64.9 °F 90% 30.09 in 10.0 mi Calm Calm - N/A   Overcast